timestamp,surface_pressure_avg,surface_temp_avg,battery_voltage,lat,long
2020-02-18 00:09:01+00:00,221.7531,-0.3,12.65,47.84626,-54.09684
2020-02-18 00:19:01+00:00,223.9831,-0.27,12.65,47.84626,-54.09684
2020-02-18 00:29:01+00:00,225.3131,-0.23,12.65,47.84626,-54.09684
2020-02-18 00:39:01+00:00,220.8864,-0.2,12.65,47.84626,-54.09684
2020-02-18 00:49:01+00:00,217.0431,-0.21,12.65,47.84626,-54.09684
2020-02-18 00:59:01+00:00,221.1064,-0.16,12.65,47.84626,-54.09684
2020-02-18 01:09:01+00:00,221.4915,-0.09,12.65,47.84626,-54.09684
2020-02-18 01:19:01+00:00,214.9565,-0.1,12.57,47.84626,-54.09684
2020-02-18 01:29:01+00:00,215.6331,-0.1,12.57,47.84626,-54.09684
2020-02-18 01:39:01+00:00,222.0014,-0.1,12.57,47.84626,-54.09684
2020-02-18 01:49:01+00:00,218.8214,-0.2,12.57,47.84626,-54.09684
2020-02-18 01:59:01+00:00,214.4948,-0.2,12.57,47.84626,-54.09684
2020-02-18 02:09:01+00:00,219.5215,-0.2,12.57,47.84626,-54.09684
2020-02-18 02:19:01+00:00,224.2681,-0.2,12.57,47.84626,-54.09684
2020-02-18 02:29:01+00:00,220.9198,-0.16,12.57,47.84626,-54.09684
2020-02-18 02:39:01+00:00,223.3914,-0.1,12.57,47.84626,-54.09684
2020-02-18 02:49:01+00:00,231.5431,-0.1,12.57,47.84626,-54.09684
2020-02-18 02:59:01+00:00,234.1764,-0.1,12.57,47.84626,-54.09684
2020-02-18 03:09:01+00:00,231.763,-0.1,12.57,47.84626,-54.09684
2020-02-18 03:19:01+00:00,235.0797,-0.1,12.57,47.84626,-54.09684
2020-02-18 03:29:01+00:00,245.2514,-0.1,12.57,47.84626,-54.09684
2020-02-18 03:39:01+00:00,246.648,-0.1,12.57,47.84626,-54.09684
2020-02-18 03:49:01+00:00,247.9348,-0.1,12.57,47.84626,-54.09684
2020-02-18 03:59:01+00:00,256.8698,-0.1,12.57,47.84626,-54.09684
2020-02-18 04:09:01+00:00,267.2314,-0.1,12.57,47.84626,-54.09684
2020-02-18 04:19:01+00:00,269.1097,-0.1,12.57,47.84626,-54.09684
2020-02-18 04:29:01+00:00,269.0181,-0.1,12.57,47.84626,-54.09684
2020-02-18 04:39:01+00:00,274.5648,-0.1,12.57,47.84626,-54.09684
2020-02-18 04:49:01+00:00,283.4031,-0.1,12.57,47.84626,-54.09684
2020-02-18 04:59:01+00:00,288.0181,-0.05,12.57,47.84626,-54.09684
2020-02-18 05:09:01+00:00,290.7531,-0.02,12.57,47.84626,-54.09684
2020-02-18 05:19:01+00:00,297.4147,-0.01,12.49,47.84626,-54.09684
2020-02-18 05:29:01+00:00,302.5064,-0.0,12.49,47.84626,-54.09684
2020-02-18 05:39:01+00:00,303.7313,0.0,12.49,47.84626,-54.09684
2020-02-18 05:49:01+00:00,307.558,-0.0,12.49,47.84626,-54.09684
2020-02-18 05:59:01+00:00,318.0163,-0.0,12.49,47.84626,-54.09684
2020-02-18 06:09:01+00:00,320.6863,0.0,12.49,47.84626,-54.09684
2020-02-18 06:19:01+00:00,317.7145,0.0,12.49,47.84626,-54.09684
2020-02-18 06:29:01+00:00,320.7131,0.0,12.49,47.84626,-54.09684
2020-02-18 06:39:01+00:00,329.353,0.0,12.49,47.84626,-54.09684
2020-02-18 06:49:01+00:00,328.1862,-0.0,12.49,47.84626,-54.09684
2020-02-18 06:59:01+00:00,324.7112,-0.02,12.49,47.84626,-54.09684
2020-02-18 07:09:01+00:00,329.0080000000001,-0.0,12.49,47.84626,-54.09684
2020-02-18 07:19:01+00:00,334.7663,0.0,12.49,47.84626,-54.09684
2020-02-18 07:29:01+00:00,334.8813,0.0,12.49,47.84626,-54.09684
2020-02-18 07:39:01+00:00,334.0064,0.0,12.49,47.84626,-54.09684
2020-02-18 07:49:01+00:00,337.4247,0.0,12.49,47.84626,-54.09684
2020-02-18 07:59:01+00:00,339.648,0.0,12.49,47.84626,-54.09684
2020-02-18 08:09:01+00:00,337.0031,0.0,12.49,47.84626,-54.09684
2020-02-18 08:19:01+00:00,333.468,0.0,12.49,47.84626,-54.09684
2020-02-18 08:29:01+00:00,339.0246,0.0,12.49,47.84626,-54.09684
2020-02-18 08:39:01+00:00,334.958,0.0,12.49,47.84626,-54.09684
2020-02-18 08:49:01+00:00,323.6447,-0.0,12.49,47.84626,-54.09684
2020-02-18 08:59:01+00:00,319.8846,-0.01,12.49,47.84626,-54.09684
2020-02-18 09:09:01+00:00,321.7347,-0.0,12.49,47.84626,-54.09684
2020-02-18 09:19:01+00:00,313.3746,0.0,12.49,47.84626,-54.09684
2020-02-18 09:29:01+00:00,301.663,-0.0,12.49,47.84626,-54.09684
2020-02-18 09:39:01+00:00,301.6964,-0.0,12.49,47.84626,-54.09684
2020-02-18 09:49:01+00:00,303.1964,0.0,12.49,47.84626,-54.09684
2020-02-18 09:59:01+00:00,299.8314,0.0,12.49,47.84626,-54.09684
2020-02-18 10:09:01+00:00,293.2431,0.0,12.49,47.84626,-54.09684
2020-02-18 10:19:01+00:00,287.4197,0.0,12.49,47.84626,-54.09684
2020-02-18 10:29:01+00:00,284.0131,0.0,12.49,47.84626,-54.09684
2020-02-18 10:39:01+00:00,276.3848,0.0,12.49,47.84626,-54.09684
2020-02-18 10:49:01+00:00,268.2964,0.0,12.49,47.84626,-54.09684
2020-02-18 10:59:01+00:00,262.6364,0.0,12.49,47.84626,-54.09684
2020-02-18 11:09:01+00:00,258.9197,0.0,12.49,47.84626,-54.09684
2020-02-18 11:19:01+00:00,253.7897,0.0,12.49,47.84626,-54.09684
2020-02-18 11:29:01+00:00,250.3747,0.03,12.49,47.84626,-54.09684
2020-02-18 11:39:01+00:00,250.6548,0.1,12.49,47.84626,-54.09684
2020-02-18 11:49:01+00:00,246.9413,0.11,12.49,47.84626,-54.09684
2020-02-18 11:59:01+00:00,241.3798,0.1,12.49,47.84626,-54.09684
2020-02-18 12:09:01+00:00,237.3231,0.1,12.49,47.84626,-54.09684
2020-02-18 12:19:01+00:00,235.2365,0.1,12.81,47.84626,-54.09684
2020-02-18 12:29:01+00:00,229.8781,0.1,12.81,47.84626,-54.09684
2020-02-18 12:39:01+00:00,224.6248,0.12,12.81,47.84626,-54.09684
2020-02-18 12:49:01+00:00,224.5181,0.06,12.81,47.84626,-54.09684
2020-02-18 12:59:01+00:00,222.6014,-0.1,12.81,47.84626,-54.09684
2020-02-18 13:09:01+00:00,219.4798,-0.05,12.81,47.84626,-54.09684
2020-02-18 13:19:01+00:00,220.1864,0.0,14.08,47.84626,-54.09684
2020-02-18 13:29:01+00:00,219.2931,0.0,14.08,47.84626,-54.09684
2020-02-18 13:39:01+00:00,216.3831,-0.1,14.08,47.84626,-54.09684
2020-02-18 13:49:01+00:00,213.9698,-0.1,14.08,47.84626,-54.09684
2020-02-18 13:59:01+00:00,211.3498,-0.1,14.08,47.84626,-54.09684
2020-02-18 14:09:01+00:00,207.0331,-0.1,14.08,47.84626,-54.09684
2020-02-18 14:19:01+00:00,205.2664,-0.1,14.88,47.84626,-54.09684
2020-02-18 14:29:01+00:00,209.4564,-0.1,14.88,47.84626,-54.09684
2020-02-18 14:39:01+00:00,212.1732,-0.1,14.88,47.84626,-54.09684
2020-02-18 14:49:01+00:00,207.3348,-0.1,14.88,47.84626,-54.09684
2020-02-18 14:59:01+00:00,207.8981,-0.1,14.88,47.84626,-54.09684
2020-02-18 15:09:01+00:00,212.6148,-0.01,14.88,47.84626,-54.09684
2020-02-18 15:19:01+00:00,210.0231,0.0,14.88,47.84626,-54.09684
2020-02-18 15:29:01+00:00,208.5515,-0.03,14.88,47.84626,-54.09684
2020-02-18 15:39:01+00:00,214.8281,0.0,14.88,47.84626,-54.09684
2020-02-18 15:49:01+00:00,219.2431,0.1,14.88,47.84626,-54.09684
2020-02-18 15:59:01+00:00,220.9315,0.07,14.88,47.84626,-54.09684
2020-02-18 16:09:01+00:00,223.3964,0.0,14.88,47.84626,-54.09684
2020-02-18 16:19:01+00:00,225.2697,0.0,14.8,47.84626,-54.09684
2020-02-18 16:29:01+00:00,229.5598,0.1,14.8,47.84626,-54.09684
2020-02-18 16:39:01+00:00,230.4848,0.1,14.8,47.84626,-54.09684
2020-02-18 16:49:01+00:00,235.3398,0.1,14.8,47.84626,-54.09684
2020-02-18 16:59:01+00:00,245.0081,0.15,14.8,47.84626,-54.09684
2020-02-18 17:09:01+00:00,248.9265,0.1,14.8,47.84626,-54.09684
2020-02-18 17:19:01+00:00,249.6597,0.09,14.64,47.84626,-54.09684
2020-02-18 17:29:01+00:00,251.7931,0.1,14.64,47.84626,-54.09684
2020-02-18 17:39:01+00:00,256.9181,0.16,14.64,47.84626,-54.09684
2020-02-18 17:49:01+00:00,259.3764,0.2,14.64,47.84626,-54.09684
2020-02-18 17:59:01+00:00,260.0631,0.2,14.64,47.84626,-54.09684
2020-02-18 18:09:01+00:00,262.1397,0.2,14.64,47.84626,-54.09684
2020-02-18 18:19:01+00:00,268.7097,0.2,14.56,47.84626,-54.09684
2020-02-18 18:29:01+00:00,273.1481,0.2,14.56,47.84626,-54.09684
2020-02-18 18:39:01+00:00,273.8614,0.1,14.56,47.84626,-54.09684
2020-02-18 18:49:01+00:00,275.5281,0.08,14.56,47.84626,-54.09684
2020-02-18 18:59:01+00:00,284.7547,0.18,14.56,47.84626,-54.09684
2020-02-18 19:09:01+00:00,290.3331,0.2,14.56,47.84626,-54.09684
2020-02-18 19:19:01+00:00,290.3514,0.1,14.32,47.84626,-54.09684
2020-02-18 19:29:01+00:00,290.2531,0.0,14.32,47.84626,-54.09684
2020-02-18 19:39:01+00:00,295.1863,0.05,14.32,47.84626,-54.09684
2020-02-18 19:49:01+00:00,296.1414,0.1,14.32,47.84626,-54.09684
2020-02-18 19:59:01+00:00,298.2263,0.1,14.32,47.84626,-54.09684
2020-02-18 20:09:01+00:00,299.5663,0.15,14.32,47.84626,-54.09684
2020-02-18 20:19:01+00:00,300.2079,0.19,14.0,47.84626,-54.09684
2020-02-18 20:29:01+00:00,302.1931,0.2,14.0,47.84626,-54.09684
2020-02-18 20:39:01+00:00,301.5814,0.2,14.0,47.84626,-54.09684
2020-02-18 20:49:01+00:00,301.798,0.2,14.0,47.84626,-54.09684
2020-02-18 20:59:01+00:00,298.0097,0.1,14.0,47.84626,-54.09684
2020-02-18 21:09:01+00:00,294.248,0.04,14.0,47.84626,-54.09684
2020-02-18 21:19:01+00:00,295.5247,0.0,13.53,47.84626,-54.09684
2020-02-18 21:29:01+00:00,299.0314,0.0,13.53,47.84626,-54.09684
2020-02-18 21:39:01+00:00,296.6497,-0.01,13.53,47.84626,-54.09684
2020-02-18 21:49:01+00:00,288.7497,-0.07,13.53,47.84626,-54.09684
2020-02-18 21:59:01+00:00,287.9764,-0.05,13.53,47.84626,-54.09684
2020-02-18 22:09:01+00:00,290.5797,-0.03,13.53,47.84626,-54.09684
2020-02-18 22:19:01+00:00,286.7281,-0.1,13.05,47.84626,-54.09684
2020-02-18 22:29:01+00:00,278.3331,-0.1,13.05,47.84626,-54.09684
2020-02-18 22:39:01+00:00,275.8047,-0.1,13.05,47.84626,-54.09684
2020-02-18 22:49:01+00:00,275.3664,-0.1,13.05,47.84626,-54.09684
2020-02-18 22:59:01+00:00,266.7714,-0.1,13.05,47.84626,-54.09684
2020-02-18 23:09:01+00:00,258.5064,-0.1,13.05,47.84626,-54.09684
2020-02-18 23:19:01+00:00,255.178,-0.08,12.73,47.84626,-54.09684
2020-02-18 23:29:01+00:00,251.9481,-0.01,12.73,47.84626,-54.09684
2020-02-18 23:39:01+00:00,245.7997,0.0,12.73,47.84626,-54.09684
2020-02-18 23:49:01+00:00,244.2981,0.09,12.73,47.84626,-54.09684
2020-02-18 23:59:01+00:00,242.7231,0.1,12.73,47.84626,-54.09684
